Location: Croisilles
(50.1998°N, 2.8793°E)
Time: 12:45:17
(UTC+00:00)

ARGOS - Pass Details

Date: 21 January 2021
Orbit: 821 x 834 km, 98.4° (Epoch: 26 February)

Event Time Altitude Azimuth Distance (km) Brightness Sun altitude
Rises 18:52:24 0° 169° (SSE) 3,342 6.2 -23.3°
Reaches altitude 10° 18:54:44 10° 171° (S) 2,414 5.5 -23.7°
Maximum altitude 19:00:05 75° 256° (WSW) 858 3.3 -24.6°
Drops below altitude 10° 19:05:30 10° 342° (NNW) 2,438 5.8 -25.4°
Sets 19:07:52 0° 345° (NNW) 3,378 6.5 -25.8°
